OK2ZAW-19 Weather Reports


time (UTC)temp
F
wind
direction
speed
knots
gust
knots
rain 1hr
in
rain 24hr
in
rain mn
in
humidity
%
barometer
mb
20260502231104 50 315 0.0 0.0 0.00 0.00 0.00 53 1020.0
20260502230554 50 315 0.0 0.0 0.00 0.00 0.00 53 1020.0
20260502230044 50 315 0.0 0.9 0.00 0.00 0.00 53 1020.1
20260502225533 50 315 0.0 0.9 0.00 0.00 0.00 53 1020.1
20260502224512 50 315 0.0 0.9 0.00 0.00 0.00 53 1020.2
20260502224002 50 315 0.0 0.0 0.00 0.00 0.00 53 1020.2
20260502223452 50 315 0.0 0.9 0.00 0.00 0.00 53 1020.2
20260502222941 50 315 0.0 0.9 0.00 0.00 0.00 53 1020.3
20260502222431 50 315 0.0 0.0 0.00 0.00 0.00 52 1020.3
20260502221920 50 315 0.0 0.0 0.00 0.00 0.00 52 1020.4
20260502221410 50 315 0.0 0.0 0.00 0.00 0.00 51 1020.4
20260502220350 51 315 0.0 0.9 0.00 0.00 0.00 51 1020.4
20260502215839 51 315 0.0 1.7 0.00 0.00 0.00 52 1020.3
20260502215328 51 315 0.0 1.7 0.00 0.00 0.00 50 1020.3
20260502214307 51 315 0.0 0.9 0.00 0.00 0.00 52 1020.4
20260502213757 51 315 0.0 0.0 0.00 0.00 0.00 49 1020.4
20260502213247 52 315 0.0 0.9 0.00 0.00 0.00 49 1020.4
20260502212736 52 315 0.0 0.9 0.00 0.00 0.00 49 1020.5
20260502212225 52 315 0.0 0.0 0.00 0.00 0.00 48 1020.5
20260502211204 53 315 0.0 0.9 0.00 0.00 0.00 47 1020.6
20260502210654 53 315 0.0 1.7 0.00 0.00 0.00 47 1020.6
20260502210143 54 315 0.9 1.7 0.00 0.00 0.00 47 1020.7
20260502205122 54 315 0.9 1.7 0.00 0.00 0.00 47 1020.7
20260502204612 54 315 0.0 0.9 0.00 0.00 0.00 46 1020.6
20260502204101 54 315 0.0 1.7 0.00 0.00 0.00 46 1020.7
20260502203550 54 315 0.0 1.7 0.00 0.00 0.00 46 1020.7
20260502203040 54 315 0.0 0.9 0.00 0.00 0.00 46 1020.7
20260502202529 54 315 0.0 0.9 0.00 0.00 0.00 46 1020.8
20260502202019 54 315 0.9 1.7 0.00 0.00 0.00 45 1020.8
20260502201508 54 315 0.9 1.7 0.00 0.00 0.00 45 1020.9
20260502200957 54 315 0.9 1.7 0.00 0.00 0.00 45 1020.9
20260502200447 54 315 0.9 1.7 0.00 0.00 0.00 45 1020.9
20260502195936 54 315 0.0 1.7 0.00 0.00 0.00 45 1021.0
20260502195425 54 315 0.0 1.7 0.00 0.00 0.00 44 1020.9
20260502194404 54 315 0.0 0.9 0.00 0.00 0.00 44 1021.0
20260502193854 54 315 0.9 0.9 0.00 0.00 0.00 44 1021.0
20260502193343 54 315 0.9 1.7 0.00 0.00 0.00 43 1021.0
20260502192832 54 315 0.0 0.9 0.00 0.00 0.00 43 1021.0
20260502192322 54 315 0.0 0.0 0.00 0.00 0.00 41 1021.0
20260502191811 55 315 0.0 0.9 0.00 0.00 0.00 41 1020.9
20260502191300 55 315 0.0 0.9 0.00 0.00 0.00 39 1021.0
20260502190750 55 315 0.0 0.9 0.00 0.00 0.00 39 1020.9
20260502190239 55 315 0.0 0.9 0.00 0.00 0.00 38 1021.0
20260502185728 56 315 0.0 0.0 0.00 0.00 0.00 38 1020.9
20260502185218 56 315 0.0 0.0 0.00 0.00 0.00 37 1020.9
20260502184707 57 315 0.0 0.0 0.00 0.00 0.00 37 1020.8
20260502183645 58 315 0.0 0.0 0.00 0.00 0.00 36 1020.8
20260502183134 59 315 0.0 0.0 0.00 0.00 0.00 36 1020.8
20260502182624 60 315 0.0 0.0 0.00 0.00 0.00 35 1020.7
20260502182113 61 315 0.0 0.0 0.00 0.00 0.00 35 1020.7
20260502181602 63 315 0.0 0.0 0.00 0.00 0.00 33 1020.7
20260502181050 64 315 0.0 0.0 0.00 0.00 0.00 32 1020.6
20260502180539 66 315 0.0 0.0 0.00 0.00 0.00 31 1020.6
20260502170318 78 315 0.0 0.9 0.00 0.00 0.00 25 1020.7
20260502164229 79 315 1.7 2.6 0.00 0.00 0.00 25 1020.9
20260502163717 79 315 0.9 1.7 0.00 0.00 0.00 25 1020.9
20260502163205 79 315 0.0 0.9 0.00 0.00 0.00 26 1021.0
20260502162653 79 315 0.9 1.7 0.00 0.00 0.00 25 1021.0
20260502162141 79 315 0.9 1.7 0.00 0.00 0.00 25 1021.1
20260502161629 79 315 0.9 2.6 0.00 0.00 0.00 25 1021.2
20260502160605 79 315 1.7 2.6 0.00 0.00 0.00 25 1021.3
20260502151915 81 315 0.9 2.6 0.00 0.00 0.00 26 1021.8
20260502151402 81 315 1.7 1.7 0.00 0.00 0.00 25 1021.8
20260502150850 81 315 0.9 2.6 0.00 0.00 0.00 25 1021.9
20260502150338 80 315 0.0 0.9 0.00 0.00 0.00 26 1022.0
20260502140111 79 315 0.0 0.9 0.00 0.00 0.00 28 1022.5
20260502130359 74 315 0.9 1.7 0.00 0.00 0.00 32 1023.3
20260502123800 71 315 2.6 4.3 0.00 0.00 0.00 31 1023.5
20260502122736 71 315 1.7 3.5 0.00 0.00 0.00 34 1023.5
20260502122225 70 315 1.7 2.6 0.00 0.00 0.00 34 1023.6
20260502121713 70 315 1.7 2.6 0.00 0.00 0.00 34 1023.7
20260502121202 70 315 1.7 3.5 0.00 0.00 0.00 34 1023.8
20260502120650 70 315 1.7 3.5 0.00 0.00 0.00 34 1023.8
20260502120139 69 315 2.6 3.5 0.00 0.00 0.00 34 1023.9
20260502115627 69 315 2.6 3.5 0.00 0.00 0.00 34 1023.9
20260502115116 69 315 2.6 4.3 0.00 0.00 0.00 34 1024.0
20260502114604 70 315 0.9 3.5 0.00 0.00 0.00 34 1023.9
20260502114052 70 315 0.9 1.7 0.00 0.00 0.00 34 1024.1
20260502113541 70 315 1.7 2.6 0.00 0.00 0.00 34 1024.1
20260502113029 70 315 1.7 2.6 0.00 0.00 0.00 34 1024.2
20260502112518 70 315 1.7 3.5 0.00 0.00 0.00 35 1024.2
20260502112006 70 315 0.9 1.7 0.00 0.00 0.00 36 1024.3
20260502110431 68 315 2.6 3.5 0.00 0.00 0.00 35 1024.5
20260502105408 69 315 1.7 2.6 0.00 0.00 0.00 36 1024.6
20260502104857 69 315 0.9 2.6 0.00 0.00 0.00 37 1024.7
20260502104345 68 315 1.7 2.6 0.00 0.00 0.00 38 1024.7
20260502103834 68 315 2.6 3.5 0.00 0.00 0.00 36 1024.8
20260502103322 68 315 1.7 3.5 0.00 0.00 0.00 37 1024.8
20260502102811 68 315 0.9 1.7 0.00 0.00 0.00 39 1024.8
20260502102259 67 315 0.9 1.7 0.00 0.00 0.00 42 1024.9
20260502101748 66 315 1.7 2.6 0.00 0.00 0.00 43 1025.0
20260502101237 66 315 1.7 3.5 0.00 0.00 0.00 42 1025.0
20260502100725 65 315 2.6 3.5 0.00 0.00 0.00 45 1025.0
20260502091534 60 315 1.7 2.6 0.00 0.00 0.00 54 1025.5
20260502091023 60 315 1.7 2.6 0.00 0.00 0.00 54 1025.6
20260502090512 59 315 1.7 2.6 0.00 0.00 0.00 54 1025.7
20260502070605 53 315 0.0 0.9 0.00 0.00 0.00 66 1026.0
20260502065544 53 315 0.0 0.9 0.00 0.00 0.00 67 1026.0
20260502064523 53 315 0.9 1.7 0.00 0.00 0.00 67 1026.0
20260502064013 53 315 0.9 1.7 0.00 0.00 0.00 68 1026.0
20260502063502 52 315 0.9 1.7 0.00 0.00 0.00 69 1026.0
20260502062952 52 315 0.9 1.7 0.00 0.00 0.00 70 1026.0
20260502062441 52 315 0.9 1.7 0.00 0.00 0.00 71 1026.0
20260502061931 51 315 0.9 1.7 0.00 0.00 0.00 72 1026.0
20260502060910 51 315 0.0 0.9 0.00 0.00 0.00 74 1026.1
20260502060400 51 315 0.9 1.7 0.00 0.00 0.00 75 1026.1
20260502055849 50 315 0.0 1.7 0.00 0.00 0.00 75 1026.1
20260502055339 50 315 0.0 0.0 0.00 0.00 0.00 76 1026.1
20260502054828 49 315 0.0 0.0 0.00 0.00 0.00 77 1026.1
20260502054318 49 315 0.0 0.0 0.00 0.00 0.00 77 1026.0
20260502053808 49 315 0.0 0.0 0.00 0.00 0.00 79 1026.0
20260502053257 48 315 0.0 0.0 0.00 0.00 0.00 78 1026.0
20260502052747 48 315 0.0 0.0 0.00 0.00 0.00 79 1026.0
20260502052237 48 315 0.0 0.0 0.00 0.00 0.00 79 1025.9
20260502051216 47 315 0.0 0.0 0.00 0.00 0.00 80 1025.8
20260502050706 47 315 0.0 0.0 0.00 0.00 0.00 81 1025.8
20260502050156 47 315 0.0 0.0 0.00 0.00 0.00 81 1025.8
20260502045645 47 315 0.0 0.0 0.00 0.00 0.00 82 1025.8
20260502045135 47 315 0.0 0.0 0.00 0.00 0.00 81 1025.8
20260502044625 46 315 0.0 0.0 0.00 0.00 0.00 81 1025.8
20260502043605 46 315 0.0 0.0 0.00 0.00 0.00 81 1025.7
20260502043054 46 315 0.0 0.0 0.00 0.00 0.00 80 1025.7
20260502042544 46 315 0.0 0.0 0.00 0.00 0.00 80 1025.7
20260502042034 45 315 0.0 0.0 0.00 0.00 0.00 79 1025.7
20260502041524 45 315 0.0 0.0 0.00 0.00 0.00 79 1025.6
20260502041014 45 315 0.0 0.0 0.00 0.00 0.00 78 1025.7
20260502040504 45 315 0.0 0.0 0.00 0.00 0.00 78 1025.7
20260502035953 45 315 0.0 0.0 0.00 0.00 0.00 78 1025.7
20260502035443 45 315 0.0 0.0 0.00 0.00 0.00 78 1025.7
20260502034933 45 315 0.0 0.0 0.00 0.00 0.00 77 1025.7
20260502034423 45 315 0.0 0.0 0.00 0.00 0.00 77 1025.7
20260502033913 45 315 0.0 0.0 0.00 0.00 0.00 77 1025.7
20260502033402 46 315 0.0 0.0 0.00 0.00 0.00 76 1025.7
20260502032852 46 315 0.0 0.0 0.00 0.00 0.00 77 1025.6
20260502032342 46 315 0.0 0.0 0.00 0.00 0.00 77 1025.6
20260502031832 46 315 0.0 0.0 0.00 0.00 0.00 77 1025.6
20260502031322 46 315 0.0 0.0 0.00 0.00 0.00 77 1025.6
20260502030812 46 315 0.0 0.0 0.00 0.00 0.00 77 1025.7
20260502030301 46 315 0.0 0.0 0.00 0.00 0.00 77 1025.6
20260502025751 46 315 0.0 0.0 0.00 0.00 0.00 77 1025.6
20260502025241 46 315 0.0 0.0 0.00 0.00 0.00 77 1025.7
20260502024731 46 315 0.0 0.0 0.00 0.00 0.00 77 1025.7
20260502024221 46 315 0.0 0.0 0.00 0.00 0.00 76 1025.7
20260502023710 46 315 0.0 0.0 0.00 0.00 0.00 76 1025.8
20260502023200 46 315 0.0 0.0 0.00 0.00 0.00 76 1025.8
20260502022650 46 315 0.0 0.0 0.00 0.00 0.00 76 1025.8
20260502021630 46 315 0.0 0.0 0.00 0.00 0.00 76 1025.8
20260502021120 46 315 0.0 0.0 0.00 0.00 0.00 76 1025.9
20260502020609 46 315 0.0 0.0 0.00 0.00 0.00 76 1025.8
20260502020059 46 315 0.0 0.0 0.00 0.00 0.00 76 1025.9
20260502015549 46 315 0.0 0.0 0.00 0.00 0.00 76 1025.9
20260502015039 46 315 0.0 0.0 0.00 0.00 0.00 76 1026.0
20260502014529 46 315 0.0 0.0 0.00 0.00 0.00 76 1026.0
20260502014018 46 315 0.0 0.0 0.00 0.00 0.00 77 1026.0
20260502012958 46 315 0.0 0.0 0.00 0.00 0.00 77 1026.0
20260502012448 46 315 0.0 0.0 0.00 0.00 0.00 77 1026.0
20260502011938 46 315 0.0 0.0 0.00 0.00 0.00 76 1026.1
20260502011427 46 315 0.0 0.0 0.00 0.00 0.00 76 1026.1
20260502010407 46 315 0.0 0.0 0.00 0.00 0.00 76 1026.2
20260502005857 46 315 0.0 0.0 0.00 0.00 0.00 75 1026.2
20260502005347 46 315 0.0 0.0 0.00 0.00 0.00 75 1026.2
20260502004326 46 315 0.0 0.0 0.00 0.00 0.00 75 1026.2
20260502003816 46 315 0.0 0.0 0.00 0.00 0.00 75 1026.2
20260502003306 46 315 0.0 0.0 0.00 0.00 0.00 74 1026.2
20260502002756 46 315 0.0 0.0 0.00 0.00 0.00 74 1026.2
20260502002245 46 315 0.0 0.0 0.00 0.00 0.00 74 1026.2
20260502001735 46 315 0.0 0.0 0.00 0.00 0.00 74 1026.3
20260502001225 46 315 0.0 0.0 0.00 0.00 0.00 74 1026.3
20260502000205 46 315 0.0 0.0 0.00 0.00 0.00 74 1026.4
20260501235654 46 315 0.0 0.0 0.00 0.00 0.00 74 1026.3
20260501235144 46 315 0.0 0.0 0.00 0.00 0.00 74 1026.3
20260501234634 46 315 0.0 0.0 0.00 0.00 0.00 73 1026.4
20260501234124 46 315 0.0 0.0 0.00 0.00 0.00 74 1026.4
20260501233614 46 315 0.0 0.0 0.00 0.00 0.00 72 1026.4
20260501233104 46 315 0.0 0.0 0.00 0.00 0.00 72 1026.5
20260501232553 46 315 0.0 0.0 0.00 0.00 0.00 72 1026.5
20260501232043 46 315 0.0 0.0 0.00 0.00 0.00 72 1026.6